Home > Weather > Celje > Past weeks

Flag for Slovenia Past Weather in Celje, Slovenia — Yesterday and Last 2 Weeks

Now
67 °F

Mild.


Feels Like: 67 °F
Forecast: 61 / 86 °F
Wind: 1 mph from South

Location: Celje

Current Time: Jul 24, 2016 at 1:12:19 AM

Latest Report: Jul 24, 2016 at 12:00 AM


Visibility: N/A

Pressure: 29.99 "Hg

Humidity: 91%

Dew Point: 64 °F

Location of CeljeLocation

Past Weather in Celje — Graph

°F

Celje Temperature Yesterday

Maximum temperature yesterday: 90 °F (at 4:00 PM)
Minimum temperature yesterday: 63 °F (at 6:00 AM)
Average temperature yesterday: 76 °F

High & Low Weather Summary for the Past Weeks

 TemperatureHumidityPressure
High91 °F (Jul 11, 4:00 PM)98% (Jul 11, 7:00 AM)30.18 "Hg (Jul 11, 7:00 AM)
Low53 °F (Jul 15, 4:00 AM)40% (Jul 11, 2:00 PM)29.74 "Hg (Jul 14, 4:00 AM)
Average71 °F72%29.99 "Hg
* Reported Jul 9 12:00 AM — Jul 24 12:00 AM, Celje, Weather by CustomWeather, © 2016

Note: Actual official high and low records may vary slightly from our data, if they occured in-between our weather recording intervals... More about our weather records

Advertising

Celje Weather History for the Previous 24 Hours

Scroll right to see more
 ConditionsComfort  
Time TempWeatherWind HumidityBarometerVisibility
12:00 AM
Sun, Jul 24
67 °FMild.1 mph91%29.99 "HgN/A
11:00 PM
Sat, Jul 23
67 °FMild.1 mph88%30.00 "HgN/A
10:00 PM70 °FMild.1 mph84%29.98 "HgN/A
9:00 PM74 °FMild.1 mph79%29.96 "HgN/A
8:00 PM81 °FScattered clouds.1 mph69%29.93 "Hg25 mi
7:00 PM84 °FWarm.1 mph56%29.92 "HgN/A
6:00 PM88 °FHot.2 mph45%29.92 "HgN/A
5:00 PM89 °FHot.1 mph47%29.93 "HgN/A
4:00 PM90 °FHot.2 mph45%29.93 "HgN/A
3:00 PM89 °FPassing clouds.1 mph46%29.94 "Hg25 mi
2:00 PM88 °FPassing clouds.2 mph49%29.96 "Hg25 mi
1:00 PM85 °FWarm.1 mph49%29.97 "HgN/A
12:00 PM83 °FWarm.1 mph55%29.98 "HgN/A
11:00 AM80 °FWarm.1 mph63%29.98 "HgN/A
10:00 AM77 °FWarm.1 mph66%29.99 "HgN/A
9:00 AM74 °FMild.2 mph74%30.00 "HgN/A
8:00 AM69 °FPassing clouds.2 mph87%30.00 "Hg25 mi
7:00 AM65 °FPassing clouds.No wind98%30.00 "Hg19 mi
6:00 AM63 °FMild.1 mph97%29.99 "HgN/A
5:00 AM64 °FMild.1 mph97%29.98 "HgN/A
4:00 AM65 °FMild.1 mph98%29.98 "HgN/A
3:00 AM65 °FMild.1 mph97%29.99 "HgN/A
2:00 AM66 °FMild.1 mph96%29.98 "HgN/A
1:00 AM68 °FMild.1 mph96%29.98 "HgN/A
Weather by CustomWeather, © 2016

See weather overviewHow to use our weather pages